Helicity
85 74 61 90 40 -27 -13 -29 27 27 -20 26 7 9 -44 -63 -81 -14 7 -15 20 21 25 3 -3 7 7 20 29 37 53 57 50 53 49 39 34 31 22 18 10 22 26 28 23 15 12 36 27
75 70 93 94 -22 -5 -26 -26 -66 -21 21 30 17 52 -23 6 -31 -0 38 -19 2 20 26 18 8 14 17 30 38 46 56 62 62 61 54 52 42 34 27 8 10 18 14 17 13 12 14 29 27
67 58 76 34 5 14 -10 -14 37 56 70 66 47 -48 -57 -39 -8 18 12 12 2 7 21 45 22 22 29 37 37 43 47 51 52 51 48 44 36 34 33 23 12 13 -6 1 7 3 2 16 17
50 102 89 18 2 -3 -30 16 39 63 67 32 29 41 43 -2 19 -15 44 50 15 -5 9 41 21 21 28 35 34 38 40 39 38 38 37 32 25 20 15 15 16 -9 14 -3 -0 3 -6 -5 7
64 101 3 -13 10 -0 16 30 60 59 55 59 50 57 72 36 11 42 39 18 15 -1 9 15 11 15 26 31 35 36 34 44 43 37 33 26 26 20 16 10 11 -6 -12 5 -5 1 -11 -3 2
58 54 5 22 16 -18 -24 44 64 47 53 64 49 70 75 62 77 45 22 4 -2 1 17 12 2 8 18 29 32 38 37 36 34 29 24 29 30 25 23 3 7 -8 1 -3 -3 -4 -5 -0 2
47 23 48 12 1 14 -8 25 35 46 66 63 58 55 81 104 88 47 18 -3 -11 -6 10 11 6 6 15 21 25 31 38 39 36 33 32 24 14 22 18 6 4 1 2 3 -2 -0 -9 -2 -2
35 24 1 -31 -18 22 2 36 35 42 61 69 39 76 95 128 107 67 29 18 -14 -8 -1 12 8 10 5 15 16 24 29 34 35 33 30 25 22 23 4 1 -6 -4 2 -1 5 7 -2 4 8
59 -10 5 9 1 3 13 29 50 31 88 61 60 66 112 151 127 92 47 35 5 -11 2 -7 3 5 1 11 24 15 13 10 18 22 21 24 4 40 43 17 27 8 7 9 11 17 16 23 7
49 -2 -4 25 28 21 17 25 49 76 114 102 80 87 137 138 139 114 75 50 51 39 13 2 2 -2 5 -1 32 11 24 19 15 18 31 3 14 25 31 24 8 1 2 6 18 26 35 27 35
24 23 -19 -9 22 29 9 26 51 68 85 100 104 125 126 133 147 136 92 65 46 29 14 12 4 -1 -4 6 25 21 22 19 21 27 29 27 42 43 24 16 6 -2 22 -1 18 38 25 41 -0
-6 -21 10 -1 13 19 -0 -6 24 58 24 63 86 89 114 126 110 89 47 28 38 32 23 16 11 7 3 -13 7 29 16 27 27 46 51 45 57 53 52 44 16 11 9 16 35 33 38 32 33
-1 -10 -8 6 14 14 4 4 8 8 28 74 97 99 83 97 89 72 51 29 22 32 21 28 31 18 10 17 -3 9 6 25 35 46 51 50 89 138 64 71 45 17 24 14 37 28 35 37 33
4 -29 -28 -30 -39 2 -10 9 -7 -21 29 65 90 95 66 75 92 108 44 32 4 26 29 21 31 36 27 14 24 17 9 22 32 37 56 58 56 84 97 43 25 35 11 45 57 46 33 39 45
-33 -6 3 23 -24 10 2 80 -11 -47 8 50 84 95 113 79 78 82 47 30 23 17 12 17 10 28 26 20 22 14 23 15 28 42 46 54 64 113 113 108 -24 -8 42 49 59 51 41 43 48
-39 -11 3 87 -14 19 9 30 -0 -20 16 51 80 118 116 109 52 51 50 28 18 19 22 7 11 8 20 22 11 6 9 11 3 6 49 64 66 59 77 90 46 47 53 56 55 55 44 68 49
11 -20 37 47 20 -4 -6 -16 6 -16 13 61 79 120 111 111 71 43 58 34 12 19 13 9 5 8 20 27 32 29 29 19 19 42 46 65 61 73 64 72 67 65 52 66 67 76 67 67 55
32 16 41 42 47 24 15 8 18 18 22 61 85 105 111 81 73 57 66 79 34 24 14 12 3 26 42 30 29 44 33 38 39 53 62 71 68 67 72 68 63 68 74 68 63 58 51 53 63
31 14 13 45 72 40 36 27 26 36 28 51 81 108 100 68 73 69 81 135 76 24 18 26 32 58 83 69 48 62 47 43 57 50 74 75 76 72 85 77 78 79 79 62 80 65 60 57 63
18 14 13 50 62 38 28 22 30 42 29 50 77 123 89 102 100 88 86 117 111 30 20 35 100 73 76 63 58 53 53 66 70 85 93 95 90 79 65 33 38 58 72 71 77 80 59 51 69
16 5 40 59 34 38 48 44 55 64 50 61 49 77 126 95 125 126 81 57 84 69 49 67 -11 44 28 44 49 47 52 48 43 69 57 73 64 71 74 54 35 61 70 103 75 83 82 67 63
23 41 37 20 13 8 68 -4 91 48 43 40 55 76 87 95 142 134 96 58 71 53 36 98 22 44 38 28 50 59 42 25 41 37 47 40 46 26 30 41 46 45 56 63 100 132 158 91 69
79 48 34 21 9 22 57 29 32 66 30 52 38 43 64 86 132 120 85 106 117 95 88 82 90 63 56 60 66 33 22 32 30 27 23 29 40 35 18 21 30 37 47 41 78 89 181 170 87
62 16 21 23 13 27 46 49 18 29 65 59 35 40 62 92 108 90 73 97 116 102 89 105 63 21 36 58 53 36 47 46 45 36 26 27 43 36 38 25 19 24 36 31 50 68 118 185 112
21 13 20 41 54 31 92 63 30 46 33 26 33 55 56 94 76 91 110 75 89 81 53 71 43 30 27 40 33 49 59 48 44 20 29 -2 14 34 4 11 15 20 27 46 41 56 60 64 8
31 -0 15 53 27 53 70 60 45 60 21 22 13 24 45 81 71 60 105 80 59 65 61 43 65 51 32 54 41 52 53 51 35 44 23 14 12 36 11 10 20 18 21 32 29 27 31 30 -12
78 67 -2 37 53 67 29 52 10 24 5 -10 7 48 57 85 74 61 79 70 73 57 59 76 59 51 53 48 38 52 52 52 43 38 22 18 14 31 21 -11 3 17 18 10 21 14 12 25 39
109 68 80 50 52 57 61 44 18 26 1 30 39 59 103 85 98 81 93 80 83 75 84 93 75 60 42 40 36 37 46 46 46 42 38 10 -14 22 6 -19 11 -0 -6 13 26 15 14 23 39
81 71 59 44 82 41 36 42 86 26 9 23 50 87 103 153 110 122 89 129 113 82 56 82 74 40 35 37 32 30 46 43 53 58 43 1 -9 -13 -24 -5 5 20 40 44 46 33 32 23 35
72 51 36 33 66 38 55 27 66 45 21 25 68 121 131 154 124 133 137 183 121 64 38 56 71 40 44 35 30 39 37 38 60 60 56 23 -17 -32 -9 12 21 20 32 38 25 50 54 50 46
Wind_Speed
28 30 27 32 44 52 51 56 53 55 53 51 48 42 46 41 38 35 40 44 46 43 42 43 30 27 27 27 29 30 32 30 28 32 33 34 31 36 38 42 32 23 21 21 19 20 19 36 31
24 28 31 25 34 46 52 57 46 59 54 48 49 47 48 47 39 38 48 48 50 44 38 37 28 25 26 27 28 27 28 28 28 29 28 30 30 31 29 18 30 23 21 22 22 20 19 21 23
27 28 27 29 29 41 50 55 54 51 44 41 45 47 46 46 41 48 46 51 46 43 39 33 34 29 25 24 24 24 24 24 24 24 25 24 25 30 33 28 24 19 26 31 29 25 22 18 17
25 35 35 22 36 33 43 50 49 47 46 47 47 51 51 50 49 44 51 50 47 47 44 35 32 27 26 25 24 22 23 23 22 22 22 22 22 24 24 28 35 30 35 37 30 26 27 25 14
33 33 44 30 39 9 47 45 40 41 46 48 44 49 49 46 46 48 47 48 46 45 40 40 30 26 27 27 26 26 24 24 26 23 22 21 22 21 21 22 22 37 35 30 31 28 30 26 13
33 35 23 29 31 33 45 43 40 42 45 47 49 50 49 46 45 46 46 46 44 43 38 38 37 33 27 28 27 28 27 27 27 25 20 20 22 22 21 23 24 36 37 38 32 33 30 26 18
30 33 26 33 39 39 38 40 41 42 43 45 44 46 44 43 42 43 42 42 43 39 35 36 36 33 26 25 25 27 28 27 27 27 24 20 21 23 25 30 29 32 37 39 37 31 38 29 26
37 28 40 38 40 44 40 38 35 34 41 42 40 42 39 39 40 39 36 34 40 37 34 34 31 35 28 24 21 21 20 20 22 22 21 20 22 23 27 36 34 36 35 37 36 32 29 23 21
39 40 36 36 37 25 37 32 33 34 38 36 38 42 42 41 39 33 29 27 40 39 35 34 30 33 27 21 16 13 12 13 15 16 17 18 18 19 19 21 29 36 37 36 34 28 22 21 32
37 35 31 28 17 19 23 27 32 32 35 35 36 39 41 42 39 34 30 31 44 42 37 35 30 28 23 18 11 13 10 11 11 13 16 19 25 29 35 37 36 43 41 37 31 26 17 14 13
28 26 34 28 20 19 21 28 28 27 29 29 29 33 37 40 41 43 42 43 45 42 38 36 34 34 31 18 13 11 9 9 10 13 17 23 33 35 26 39 45 47 11 21 15 17 14 12 22
31 28 31 25 21 20 23 23 25 22 25 37 32 33 36 37 38 39 40 39 40 39 37 36 33 33 30 21 19 10 11 9 9 14 19 25 27 31 40 49 32 51 50 29 24 21 26 17 15
24 26 29 26 23 18 19 17 19 19 25 28 30 31 33 34 36 38 35 32 32 31 29 33 33 32 27 22 19 15 14 9 13 14 12 13 12 17 53 57 57 56 16 34 35 30 28 25 21
22 27 24 25 21 20 16 16 21 29 30 30 30 30 31 31 33 33 32 29 26 24 23 23 29 27 27 26 19 16 15 10 9 8 8 6 6 10 26 62 62 61 57 33 30 29 33 28 22
34 26 20 25 22 29 15 21 27 27 29 30 30 29 29 29 29 28 28 28 27 23 16 18 19 23 24 27 24 19 15 14 12 10 8 7 6 6 5 5 43 48 39 43 39 37 36 31 30
15 17 17 28 26 30 17 40 34 27 27 30 29 27 26 26 27 26 25 24 22 23 19 12 17 17 21 22 22 20 18 17 15 14 12 8 4 3 4 6 12 9 23 25 29 36 43 41 33
15 29 24 27 30 34 29 35 33 28 25 26 25 24 22 24 24 24 23 21 24 26 26 17 16 14 15 19 21 21 18 16 18 17 14 16 11 7 9 7 6 7 14 26 35 47 47 39 38
25 23 23 23 30 39 28 27 31 24 21 20 22 20 20 20 21 22 20 19 22 20 22 25 17 8 10 13 15 16 14 15 17 17 18 21 20 19 17 20 23 19 21 26 32 40 41 36 45
29 28 29 19 30 35 33 29 25 21 19 19 18 16 16 19 21 21 19 18 18 19 19 13 11 5 8 9 14 17 19 21 23 18 24 25 27 24 25 35 29 28 27 34 35 35 38 46 37
26 27 20 23 24 31 34 32 23 17 16 16 15 14 15 17 18 17 16 18 20 18 16 10 15 4 9 10 16 26 27 28 29 27 27 27 19 12 10 14 16 21 22 33 33 34 45 43 36
19 21 25 29 36 23 33 15 21 23 20 17 13 14 15 18 16 15 18 18 25 25 22 21 36 30 22 14 19 25 30 32 33 34 30 30 28 21 19 16 12 22 26 37 38 38 39 49 50
23 24 25 30 28 39 32 48 25 25 24 20 17 13 14 16 16 16 20 20 19 28 24 26 38 21 18 17 22 30 35 39 43 41 40 31 24 14 5 4 9 14 18 24 45 41 32 45 60
27 25 31 32 25 36 21 35 30 26 27 35 30 17 14 15 15 16 18 20 21 26 28 28 18 17 17 20 25 30 37 40 43 46 48 44 35 21 14 9 6 4 8 15 38 34 24 30 58
21 26 25 27 27 26 32 31 33 34 37 35 32 29 15 15 17 19 22 22 19 23 26 25 26 21 19 22 28 33 37 42 45 49 49 53 46 38 30 20 13 5 3 3 20 28 20 18 41
24 23 30 31 27 38 32 30 25 36 32 33 31 32 17 17 18 19 20 21 24 23 23 20 22 22 22 24 29 33 38 42 46 50 53 56 57 44 46 35 22 15 9 6 4 15 15 10 23
17 16 33 43 42 34 32 37 38 32 29 30 29 26 20 18 18 18 21 21 21 24 20 20 19 23 23 25 29 33 38 43 47 49 52 53 54 34 14 33 30 20 19 17 15 12 2 4 12
25 26 24 41 35 49 39 33 31 27 25 25 29 27 22 19 19 18 20 23 23 22 20 20 21 19 21 25 28 32 37 43 47 46 46 53 53 40 33 38 28 25 22 21 20 18 14 7 4
34 23 23 21 37 49 30 33 37 38 32 27 28 26 21 19 19 19 19 20 22 21 16 16 19 18 21 22 27 31 37 41 43 45 49 53 51 20 7 39 20 25 26 22 21 21 24 18 17
22 25 25 41 39 53 37 27 22 36 40 37 25 21 21 20 20 20 18 19 21 18 17 14 17 18 18 20 24 29 36 39 43 47 47 49 47 12 27 47 47 42 37 37 34 28 28 24 27
37 39 27 28 26 36 54 55 26 32 41 33 23 20 20 20 22 22 20 18 17 14 15 14 15 16 17 19 23 28 33 38 44 48 49 49 39 35 46 50 51 41 40 37 42 35 34 31 29
Wind_Direction
154 146 151 139 97 46 34 42 85 77 48 78 69 79 43 13 39 54 97 106 109 103 104 108 92 85 78 71 69 70 74 75 70 76 80 82 72 84 92 106 75 37 14 354 319 295 331 110 82
174 154 148 165 28 33 37 61 24 54 65 69 55 66 39 34 8 63 104 114 116 105 102 103 90 82 80 75 72 69 70 70 70 73 70 72 73 75 70 8 76 26 311 303 297 317 340 31 57
174 164 162 154 5 26 39 61 76 77 86 90 66 30 26 23 34 94 100 114 110 108 106 98 101 93 83 73 69 67 63 63 63 62 63 59 62 78 89 74 47 26 277 246 262 288 310 360 25
192 137 143 357 26 17 25 81 82 85 82 80 75 64 60 59 86 87 106 113 112 118 115 105 103 94 84 76 68 60 60 59 55 51 48 47 47 51 47 77 120 262 128 176 265 285 281 291 344
173 162 69 19 33 18 88 86 97 89 77 74 78 64 58 68 77 91 104 114 115 116 111 116 105 96 90 85 78 74 64 62 66 54 44 37 44 30 15 6 8 185 231 150 255 280 272 292 339
167 164 39 13 11 12 45 89 96 85 78 73 66 68 65 69 81 92 107 116 116 116 109 114 116 111 98 93 89 87 81 77 72 62 36 24 35 36 16 330 325 221 220 216 255 259 283 295 309
175 153 10 27 44 27 7 93 83 84 84 72 73 62 66 76 80 90 103 113 117 112 109 117 122 118 105 99 95 96 93 85 82 81 66 31 354 336 324 293 299 282 246 227 250 292 248 289 285
179 173 70 48 39 39 52 100 102 99 76 73 74 57 65 82 90 87 91 99 118 117 116 121 121 127 117 108 99 95 85 77 77 71 60 29 350 343 321 277 281 276 278 261 266 292 299 326 320
179 97 61 40 15 37 95 103 97 84 77 73 67 59 65 86 85 76 74 81 124 132 130 129 126 130 122 107 92 75 36 28 32 37 28 32 22 19 18 347 311 280 279 279 285 311 324 337 288
165 80 33 344 214 184 135 116 98 104 88 74 72 67 80 90 87 91 93 100 138 140 137 136 132 129 121 109 56 94 64 76 40 25 10 0 337 328 303 290 289 261 270 284 300 316 2 31 51
193 19 97 112 195 182 141 104 114 107 89 84 85 85 92 96 97 106 118 129 143 137 136 140 142 143 143 113 79 72 36 40 25 10 352 334 314 310 335 299 264 225 137 204 12 352 6 31 320
123 81 179 179 188 152 109 113 103 117 90 57 75 93 100 101 99 107 115 121 126 129 132 138 141 145 147 131 122 70 96 45 54 352 338 324 323 316 303 276 308 252 250 312 330 342 320 348 344
75 43 168 193 200 153 134 136 147 124 81 72 77 93 103 101 97 109 103 101 106 109 112 129 134 143 141 133 128 114 121 75 14 4 355 343 340 332 295 276 259 240 332 295 302 312 318 323 332
2 150 158 187 168 110 127 117 98 65 64 76 84 93 101 101 98 101 107 100 97 90 100 101 125 125 133 139 121 116 120 76 87 68 38 27 10 336 321 260 242 249 233 305 310 314 308 318 330
188 163 101 60 103 66 123 108 86 67 68 75 82 88 96 99 101 104 114 119 117 100 81 86 91 107 114 131 122 112 91 113 105 79 83 113 119 41 35 75 201 211 290 296 302 307 311 316 314
31 130 146 22 62 55 116 27 46 67 71 73 81 84 91 101 106 101 106 117 116 117 102 67 88 82 99 100 99 97 69 52 41 41 44 50 55 83 118 173 197 286 303 304 306 305 302 302 307
21 322 352 2 16 19 55 29 42 58 77 75 77 82 93 106 106 102 96 109 131 137 133 112 102 75 72 94 96 100 86 63 31 24 16 0 359 348 324 300 245 259 297 300 298 297 299 296 297
328 336 349 354 2 351 29 41 44 60 78 76 75 82 102 114 113 109 93 93 133 131 133 139 123 40 39 43 72 66 64 45 20 14 5 350 340 329 315 309 305 299 299 297 296 296 297 298 288
322 330 331 4 354 355 1 17 36 57 74 68 74 83 106 122 110 106 84 80 117 128 135 131 126 75 341 49 33 29 24 22 10 9 355 343 330 320 310 303 297 294 290 290 291 292 293 289 291
322 329 354 353 0 354 353 359 19 55 67 61 68 80 109 122 118 104 66 82 118 112 111 93 7 92 350 18 15 358 11 12 8 3 359 351 348 329 298 255 272 292 290 289 286 285 285 288 286
336 331 341 336 338 355 347 4 30 39 48 47 75 83 115 130 112 86 59 80 113 110 103 105 185 143 101 10 14 14 10 9 10 7 7 3 356 353 343 329 302 305 297 293 287 282 281 277 277
328 331 333 335 348 330 354 321 10 25 29 44 56 87 112 119 100 68 46 50 97 131 105 106 154 72 64 42 16 6 2 1 1 10 11 19 25 36 53 14 337 322 307 296 287 284 278 275 267
324 334 328 331 345 336 355 342 357 18 10 9 19 51 97 106 99 73 50 60 47 104 110 98 46 30 46 34 22 18 2 3 11 13 10 16 22 35 40 32 22 353 332 314 293 286 277 274 265
333 330 336 339 339 335 337 348 354 355 352 357 9 16 56 91 88 75 71 74 47 92 110 80 69 47 38 29 21 11 9 8 9 12 11 4 18 18 23 32 33 29 32 17 312 293 279 268 263
314 323 321 326 328 321 343 343 346 351 0 354 357 2 39 83 92 79 59 75 107 99 114 107 86 58 56 30 13 13 14 14 12 8 5 354 357 21 0 21 39 53 70 68 24 307 305 207 179
303 298 305 313 314 327 344 335 341 358 360 6 6 7 44 72 85 78 54 58 88 112 90 87 85 74 61 20 15 19 13 12 11 12 8 1 5 42 75 33 36 72 77 79 65 9 38 241 242
306 295 298 304 315 310 323 339 350 9 12 17 10 16 44 57 61 56 41 56 72 90 83 73 71 48 16 16 35 27 25 16 15 24 24 2 8 38 48 293 49 61 89 86 68 56 25 16 213
294 315 308 303 306 304 328 333 329 355 2 13 6 17 36 48 52 41 43 49 62 68 43 30 38 22 4 12 27 25 22 30 32 29 20 355 338 75 218 313 108 90 80 114 92 28 344 344 322
301 299 300 301 302 292 317 338 0 350 345 347 14 44 53 60 42 39 46 60 62 53 53 13 27 20 24 18 21 18 19 31 33 24 26 338 334 253 302 346 357 352 332 326 330 356 359 354 328
295 291 297 297 306 303 289 287 350 342 342 354 23 59 59 41 42 48 46 57 61 33 38 1 7 28 24 21 23 19 22 24 25 17 20 350 320 314 353 9 17 355 356 344 19 341 341 350 345